User: anonymous   Login
Location: Fours
(44.3167°N, 6.7000°E)
Time: 23:16:14
(UTC+00:00)
Language:

SAOCOM 1-A - Orbit

View from above orbital plane
View from above orbital plane
View from above satellite
View from above satellite

Ground track
Ground track

The orbit data is extracted from the following two-line orbital elements,

1 43641U 18076A   22222.48623569  .00000147  00000-0  25073-4 0  9996
2 43641  97.8898  48.4083 0001518  85.3488 274.7910 14.82151055207738
Epoch (UTC): 10 August 2022 11:40:10
Eccentricity: 0.0001518
inclination: 97.8898°
perigee height: 621 km
apogee height: 623 km
right ascension of ascending node: 48.4083°
argument of perigee: 85.3488°
revolutions per day: 14.82151055
mean anomaly at epoch: 274.7910°
orbit number at epoch: 20773

The dashed part of the orbit path shows where the satellite is in the earth's shadow,  

DLR